Regional Weather Roundup
Issued by NWS Charleston, SC

Home | Current Version | Previous Version | Text Only | Print | Product List | Glossary On
Versions: 1 2 3 4 5 6 7 8 9 10 11 12 13 14 15 16 17 18 19 20 21 22 23 24 25 26 27 28 29 30 31 32 33 34 35 36 37 38 39 40 41 42 43 44 45 46 47 48 49 50
000
ASUS42 KCHS 040027
RWRCHS

REGIONAL WEATHER ROUNDUP
NATIONAL WEATHER SERVICE CHARLESTON SC
800 PM EDT FRI JUL 03 2015

NOTE: "FAIR" INDICATES FEW OR NO CLOUDS BELOW 12,000 FEET WITH NO
SIGNIFICANT WEATHER AND/OR OBSTRUCTIONS TO VISIBILITY.

NOT ALL STATIONS ARE QUALITY CONTROLLED BY THE NATIONAL
WEATHER SERVICE. USE DATA WITH CAUTION...ESPECIALLY
DEWPOINT OBSERVATIONS.

SCZ027-030-031-034>040-042>050-040100-
...SOUTHEAST SOUTH CAROLINA...

CITY           SKY/WX    TMP DP  RH WIND       PRES   REMARKS
N CHARLESTON   MOCLDY    80  69  69 SW7       29.99S
6HR MIN TEMP:  72; 6HR MAX TEMP:  89; 6HR PCP:  0.21;

WATERFRONT PAR   N/A     80  75  84 SW7       29.97S
MOUNT PLEASANT LGT RAIN  79  73  83 S8        29.99F
JOHNS ISLAND   FAIR      81  75  83 S9        30.00S
PINOPOLIS      NOT AVBL
MONCKS CORNER  FAIR      77  70  78 CALM      29.98S
SUMMERVILLE    FAIR      75  73  94 CALM      29.99S
BEAUFORT MCAS  CLEAR     83  73  72 CALM      30.00S
6HR MIN TEMP:  74; 6HR MAX TEMP:  92; 6HR PCP:  0.10;

BEAUFORT ARPT  FAIR      81  75  83 S6        30.00S
HILTON HEAD IS CLEAR     82  79  89 S7        30.01S HX  93
WALTERBORO     PTCLDY    79  70  73 S5        29.99S
ALLENDALE      FAIR      77  72  83 CALM      29.98R

...SOUTHERN MIDLANDS AND PEE DEE...

CITY           SKY/WX    TMP DP  RH WIND       PRES   REMARKS
GEORGETOWN     NOT AVBL
KINGSTREE      NOT AVBL
ORANGEBURG     MOCLDY    81  69  67 SW8       29.96F
6HR MIN TEMP:  74; 6HR MAX TEMP:  82; 6HR PCP: TRACE;

BARNWELL       FAIR      81  72  74 SW5       29.99R
AIKEN          NOT AVBL
MANNING        FAIR      77  70  78 SW6       29.96S
COLUMBIA       MOCLDY    81  68  64 W12       29.94R
6HR MIN TEMP:  80; 6HR MAX TEMP:  84; 6HR PCP: TRACE;

SUMTER         MOCLDY    82  68  63 W9        29.92R
6HR MIN TEMP:  82; 6HR MAX TEMP:  85;

FLORENCE       MOCLDY    79  72  79 SW12      29.92S
6HR MIN TEMP:  79; 6HR MAX TEMP:  87;

MYRTLE BEACH   PTCLDY    73  70  88 SW8       29.98R
N MYRTLE BEACH CLOUDY    75  71  87 SW10      29.95R
6HR MIN TEMP:  74; 6HR MAX TEMP:  85; 6HR PCP:  0.44;


$$

GAZ063-065-086>088-099>101-113>116-118-119-134>141-150-040100-
...SOUTHEAST GEORGIA...

CITY           SKY/WX    TMP DP  RH WIND       PRES   REMARKS
SAVANNAH ARPT  PTCLDY    86  72  62 NE3       30.00R HX  92
6HR MIN TEMP:  86; 6HR MAX TEMP:  94;

HUNTER AAF     CLEAR     88  68  50 SW6       29.97S HX  92
6HR MIN TEMP:  88; 6HR MAX TEMP:  95;

FORT STEWART   CLEAR     88  67  50 SW7       29.98S HX  91
6HR MIN TEMP:  88; 6HR MAX TEMP:  94;

STATESBORO     NOT AVBL
SYLVANIA       PTCLDY    83  75  78 CALM      30.00R HX  90
CLAXTON        FAIR      86  72  62 CALM      30.00R HX  92

...CSRA...CENTRAL AND FAR SOUTHEAST GEORGIA...

CITY           SKY/WX    TMP DP  RH WIND       PRES   REMARKS
THOMSON        MOCLDY    81  76  85 SW5       30.02S
AUGUSTA-BUSH   MOCLDY    81  72  74 S6        29.96S
6HR MIN TEMP:  72; 6HR MAX TEMP:  84; 6HR PCP:  0.01;

AUGUSTA-DANIEL MOCLDY    82  71  69 SW7       29.98S
SWAINSBORO     FAIR      84  79  84 CALM      30.00R HX  96
VIDALIA        PTCLDY    86  72  62 SW7       30.00R HX  92
EASTMAN        FAIR      87  71  58 SW3       30.02S HX  92
HAZLEHURST     FAIR      87  72  60 SW3       30.00R HX  93
ALMA           CLEAR     87  72  60 SW5       30.01S HX  93
6HR MIN TEMP:  87; 6HR MAX TEMP:  91;

WAYCROSS       CLEAR     89  75  63 SW3       30.02S HX  99
JESUP          FAIR      90  73  58 CALM      30.01S HX  98
BAXLEY         FAIR      88  70  55 SW3       30.01R HX  92
BRUNSWICK      CLEAR     86  73  66 S9        30.03R HX  93
SAINT SIMONS   CLEAR     82  74  76 S12G17    30.02R
6HR MIN TEMP:  82; 6HR MAX TEMP:  93;


$$

SCZ027-028-034-036>038-045-046-048>050-GAZ119-141-040100-
...LAKE AND SUPPLEMENTAL COASTAL OBSERVATIONS...

STATION/POSITION TIME  TEMP    WIND        PRES    WAVE   SWELL
                       AIR SEA DIR/SP/G            HT/PER HT/PER/DIR
                 (UTC) (F)     (DEG/KT/KT) (MB)    (FT/S) (FT/S/D)
UPR LAKE MARION  NOT AVBL
WINYAH BAY       2300   73     230/  6     1014.0
LAKE MURRAY      2300   80     240/ 11/ 17 1012.9F
ACE BASIN NERRS  2300   84     130/  1     1016.0S
FORT PULASKI     0000   83 84  190/  6/ 11 1016.3R
SAPELO ISLAND    0000   85     180/ 11     1016.0S

$$

ANZ835-935-AMZ111-154-330-350-352-354-370-450-454-472-040100-
...C-MAN AND BUOY OBSERVATIONS...

STATION/POSITION TIME  TEMP    WIND        PRES    WAVE   SWELL
                       AIR SEA DIR/SP/G            HT/PER HT/PER/DIR
                 (UTC) (F)     (DEG/KT/KT) (MB)    (FT/S) (FT/S/D)
BUOY 41004       2350   81 82  230/ 14/ 17 1015.9R   4/ 5   2/ 8
BUOY 41008       2350   80 79  190/ 14/ 16 1016.4R   3/ 9   2/110/ 9
FOLLY BEACH CMAN 0000   81     190/ 15/ 17 1016.0F
CAPERS NEARSHORE 2308   81     230/ 16/ 21 1015.6F
FRIPP NEARSHORE  2300   83     170/  8/ 10 1016.0R


STATION/POSITION TIME  TEMP    WIND        PRES    WAVE   SWELL
                       AIR SEA DIR/SP/G            HT/PER HT/PER/DIR
                 (UTC) (F)     (DEG/KT/KT) (MB)    (FT/S) (FT/S/D)
5E ST. MARYS GA  2321      79                N/A     2/ 8
FRYING PAN BUOY  2350   79 79  230/ 19/ 23 1014.4S   6/ 6   2/140/ 9
BUOY 41025       2350   81 81  220/ 23/ 27 1012.8F   6/ 5   2/130/ 9
CAPE LOOKOUT NC  0000   80     220/ 16/ 20 1012.7F
BUOY 41002       2350   81 80  230/ 12/ 14 1018.9R   6/ 7   5/250/ 7
BUOY 41010       2320   83 85  160/  6/  8 1019.5R
ST AUGUSTINE FL  0000   77 75  170/ 11/ 12 1018.3F


$$


USA.gov is the U.S. government's official web portal to all federal, state and local government web resources and services.